Weather History for KBHB - April, 2014

Change the Weather History Date:

Thursday, April 24, 2014

  Actual Average (KBGR) Record (KBGR)
Temperature  
Mean Temperature 40 °F 46 °F  
Max Temperature 44 °F 57 °F 79 °F (1942)
Min Temperature 37 °F 35 °F 22 °F (1944)
Degree Days  
Heating Degree Days 24 19  
Month to date heating degree days 569  
Since 1 July heating degree days 7292  
Cooling Degree Days 0 0  
Month to date cooling degree days 0  
Year to date cooling degree days 0  
Moisture  
Dew Point 37 °F    
Average Humidity 91    
Maximum Humidity 100    
Minimum Humidity 76    
Precipitation  
Precipitation 0.19 in 0.11 in 2.49 in (1983)
Month to date precipitation 2.90  
Year to date precipitation 11.69  
Sea Level Pressure  
Sea Level Pressure 29.55 in    
Wind  
Wind Speed 15 mph (NNW)    
Max Wind Speed 23 mph    
Max Gust Speed 34 mph    
Visibility 10 miles    
Events      
T = Trace of Precipitation, MM = Missing Value Source: NWS Daily Summary

Daily Weather History Graph

Daily Weather History Graph

Search for Another Location

Airport or City:

Trip Planner

Search our weather history database for the weather conditions in past years. The results will help you decide how hot, cold, wet, or windy it might be!

Date:

Astronomy

Apr. 24, 2014 Rise Set
Actual Time 5:34 AM EDT 7:29 PM EDT
Civil Twilight 5:03 AM EDT 8:00 PM EDT
Nautical Twilight 4:25 AM EDT 8:38 PM EDT
Astronomical Twilight 3:43 AM EDT 9:20 PM EDT
Moon 2:55 AM EDT (4/24) 2:29 PM EDT (4/24)
Length of Visible Light 14h 56m
Length of Day
13h 54m
Waning Crescent, 24% of the Moon is Illuminated
Apr 24
Waning Crescent
Apr 29
New
May 6
First Quarter
May 14
Full
May 21
Last Quarter

Hourly Weather History & Observations

Time (EDT) Temp. Windchill Dew Point Humidity Pressure Visibility Wind Dir Wind Speed Gust Speed Precip Events Conditions
12:15 AM 37.4 °F 29.8 °F 37.4 °F 100% 29.40 in 10.0 mi NNW 11.5 mph 25.3 mph N/A   Overcast
12:35 AM 37.4 °F 27.8 °F 37.4 °F 100% 29.39 in 10.0 mi NNW 17.3 mph 26.5 mph N/A   Overcast
12:55 AM 37.4 °F 29.3 °F 37.4 °F 100% 29.40 in 10.0 mi NNW 12.7 mph 29.9 mph N/A   Overcast
1:15 AM 37.4 °F 27.2 °F 37.4 °F 100% 29.40 in 10.0 mi NNW 19.6 mph 28.8 mph N/A   Overcast
1:35 AM 37.4 °F 29.3 °F 35.6 °F 93% 29.40 in 10.0 mi NNW 12.7 mph 29.9 mph N/A   Overcast
1:55 AM 37.4 °F 27.5 °F 37.4 °F 100% 29.40 in 10.0 mi NNW 18.4 mph 29.9 mph 0.01 in   Overcast
2:15 AM 37.4 °F 28.2 °F 37.4 °F 100% 29.41 in 10.0 mi NNW 16.1 mph 25.3 mph 0.01 in   Overcast
2:35 AM 37.4 °F 29.3 °F 37.4 °F 100% 29.41 in 10.0 mi NNW 12.7 mph 20.7 mph 0.02 in   Overcast
2:55 AM 37.4 °F 29.3 °F 37.4 °F 100% 29.41 in 10.0 mi NNW 12.7 mph 25.3 mph 0.03 in   Overcast
3:15 AM 37.4 °F 29.3 °F 37.4 °F 100% 29.41 in 10.0 mi NNW 12.7 mph 24.2 mph 0.01 in   Overcast
3:35 AM 37.4 °F 29.8 °F 37.4 °F 100% 29.41 in 7.0 mi NNW 11.5 mph 21.9 mph 0.02 in   Overcast
3:55 AM 37.4 °F 27.8 °F 37.4 °F 100% 29.40 in 8.0 mi NNW 17.3 mph 26.5 mph 0.04 in   Overcast
4:15 AM 37.4 °F 28.5 °F 37.4 °F 100% 29.40 in 10.0 mi NNW 15.0 mph 25.3 mph 0.02 in   Overcast
4:35 AM 37.4 °F 29.3 °F 37.4 °F 100% 29.41 in 10.0 mi NNW 12.7 mph 19.6 mph 0.03 in   Overcast
4:55 AM 37.4 °F 29.8 °F 37.4 °F 100% 29.41 in 9.0 mi NNW 11.5 mph 20.7 mph 0.04 in   Overcast
5:15 AM 37.4 °F 29.3 °F 37.4 °F 100% 29.41 in 10.0 mi NNW 12.7 mph 28.8 mph N/A   Mostly Cloudy
5:35 AM 37.4 °F 28.5 °F 37.4 °F 100% 29.42 in 10.0 mi NNW 15.0 mph 23.0 mph N/A   Overcast
5:55 AM 37.4 °F 28.9 °F 37.4 °F 100% 29.42 in 10.0 mi NNW 13.8 mph 23.0 mph 0.01 in   Overcast
6:15 AM 37.4 °F 29.3 °F 37.4 °F 100% 29.43 in 10.0 mi NNW 12.7 mph 24.2 mph N/A   Overcast
6:35 AM 37.4 °F 29.3 °F 37.4 °F 100% 29.44 in 10.0 mi NNW 12.7 mph 20.7 mph N/A   Overcast
6:55 AM 37.4 °F 28.9 °F 37.4 °F 100% 29.43 in 10.0 mi NNW 13.8 mph 21.9 mph N/A   Overcast
7:15 AM 37.4 °F 27.8 °F 37.4 °F 100% 29.43 in 10.0 mi NNW 17.3 mph 26.5 mph N/A   Overcast
7:35 AM 39.2 °F 30.5 °F 37.4 °F 93% 29.43 in 10.0 mi NNW 16.1 mph 25.3 mph N/A   Overcast
7:55 AM 39.2 °F 32.0 °F 37.4 °F 93% 29.44 in 10.0 mi NNW 11.5 mph 25.3 mph N/A   Overcast
8:15 AM 39.2 °F 31.2 °F 37.4 °F 93% 29.45 in 10.0 mi NNW 13.8 mph 24.2 mph N/A   Overcast
8:35 AM 39.2 °F 31.6 °F 37.4 °F 93% 29.46 in 10.0 mi NNW 12.7 mph 24.2 mph N/A   Overcast
8:55 AM 37.4 °F 29.3 °F 37.4 °F 100% 29.46 in 10.0 mi NNW 12.7 mph 27.6 mph 0.01 in   Overcast
9:15 AM 37.4 °F 28.2 °F 37.4 °F 100% 29.47 in 9.0 mi NNW 16.1 mph 25.3 mph N/A   Overcast
9:35 AM 37.4 °F 28.9 °F 37.4 °F 100% 29.48 in 9.0 mi NNW 13.8 mph 24.2 mph 0.01 in   Overcast
9:55 AM 37.4 °F 30.3 °F 37.4 °F 100% 29.48 in 10.0 mi NNW 10.4 mph 20.7 mph 0.02 in   Overcast
10:15 AM 39.2 °F 29.8 °F 37.4 °F 93% 29.47 in 10.0 mi NNW 18.4 mph 25.3 mph N/A   Overcast
10:35 AM 39.2 °F 30.8 °F 37.4 °F 93% 29.48 in 10.0 mi NNW 15.0 mph 25.3 mph N/A   Overcast
10:55 AM 39.2 °F 30.8 °F 37.4 °F 93% 29.49 in 10.0 mi NNW 15.0 mph 28.8 mph 0.01 in   Overcast
11:15 AM 39.2 °F 30.8 °F 37.4 °F 93% 29.49 in 10.0 mi NNW 15.0 mph 21.9 mph N/A   Overcast
11:35 AM 39.2 °F 30.5 °F 37.4 °F 93% 29.49 in 9.0 mi NNW 16.1 mph 25.3 mph N/A   Overcast
11:55 AM 39.2 °F 30.8 °F 37.4 °F 93% 29.50 in 10.0 mi NNW 15.0 mph 29.9 mph 0.01 in   Overcast
12:15 PM 41.0 °F 33.1 °F 39.2 °F 93% 29.50 in 10.0 mi NNW 15.0 mph 25.3 mph N/A   Overcast
12:35 PM 42.8 °F 34.3 °F 39.2 °F 87% 29.51 in 10.0 mi NNW 19.6 mph 25.3 mph N/A   Overcast
12:55 PM 42.8 °F 35.1 °F 39.2 °F 87% 29.51 in 10.0 mi NNW 16.1 mph 25.3 mph N/A   Overcast
1:15 PM 42.8 °F 34.3 °F 39.2 °F 87% 29.51 in 10.0 mi NNW 19.6 mph 34.5 mph N/A   Overcast
1:35 PM 44.6 °F 35.9 °F 39.2 °F 81% 29.51 in 10.0 mi NNW 23.0 mph 33.4 mph N/A   Overcast
1:55 PM 44.6 °F 38.4 °F 39.2 °F 81% 29.53 in 10.0 mi NNW 12.7 mph 27.6 mph N/A   Overcast
2:15 PM 44.6 °F 36.6 °F 37.4 °F 76% 29.53 in 10.0 mi NNW 19.6 mph 33.4 mph N/A   Overcast
2:35 PM 44.6 °F 36.1 °F 37.4 °F 76% 29.53 in 10.0 mi NNW 21.9 mph 32.2 mph N/A   Overcast
2:55 PM 44.6 °F 37.2 °F 37.4 °F 76% 29.55 in 10.0 mi NNW 17.3 mph 29.9 mph N/A   Overcast
3:15 PM 44.6 °F 36.4 °F 37.4 °F 76% 29.55 in 10.0 mi North 20.7 mph 34.5 mph N/A   Overcast
3:35 PM 44.6 °F 37.4 °F 37.4 °F 76% 29.56 in 10.0 mi NNW 16.1 mph 29.9 mph N/A   Overcast
3:55 PM 44.6 °F 36.9 °F 39.2 °F 81% 29.56 in 10.0 mi North 18.4 mph 27.6 mph N/A   Overcast
4:15 PM 44.6 °F 36.6 °F 37.4 °F 76% 29.58 in 10.0 mi North 19.6 mph 28.8 mph N/A   Overcast
4:35 PM 44.6 °F 36.1 °F 37.4 °F 76% 29.59 in 10.0 mi North 21.9 mph 33.4 mph N/A   Overcast
4:55 PM 44.6 °F 37.4 °F 37.4 °F 76% 29.61 in 10.0 mi North 16.1 mph 31.1 mph N/A   Overcast
5:15 PM 44.6 °F 37.2 °F 37.4 °F 76% 29.62 in 10.0 mi North 17.3 mph 32.2 mph N/A   Overcast
5:35 PM 42.8 °F 35.8 °F 37.4 °F 81% 29.63 in 10.0 mi North 13.8 mph 27.6 mph N/A   Overcast
5:55 PM 42.8 °F 35.1 °F 37.4 °F 81% 29.65 in 10.0 mi NNW 16.1 mph 28.8 mph N/A   Overcast
6:15 PM 42.8 °F 36.2 °F 37.4 °F 81% 29.67 in 9.0 mi NNW 12.7 mph 24.2 mph N/A   Overcast
6:35 PM 42.8 °F 34.5 °F 35.6 °F 76% 29.67 in 10.0 mi NNW 18.4 mph 29.9 mph N/A   Overcast
6:55 PM 41.0 °F 32.2 °F 35.6 °F 81% 29.69 in 10.0 mi NNW 18.4 mph 26.5 mph N/A   Overcast
7:15 PM 41.0 °F 33.9 °F 35.6 °F 81% 29.71 in 10.0 mi North 12.7 mph 24.2 mph N/A   Overcast
7:35 PM 39.2 °F 32.5 °F 35.6 °F 87% 29.73 in 10.0 mi North 10.4 mph 24.2 mph N/A   Overcast
7:55 PM 39.2 °F 32.0 °F 37.4 °F 93% 29.75 in 9.0 mi North 11.5 mph 19.6 mph N/A   Overcast
8:15 PM 39.2 °F 32.5 °F 35.6 °F 87% 29.76 in 10.0 mi North 10.4 mph 24.2 mph N/A   Overcast
8:35 PM 39.2 °F 32.5 °F 35.6 °F 87% 29.78 in 10.0 mi NNW 10.4 mph 23.0 mph N/A   Overcast
8:55 PM 37.4 °F 29.3 °F 35.6 °F 93% 29.78 in 10.0 mi NNW 12.7 mph 20.7 mph N/A   Overcast
9:15 PM 37.4 °F 28.9 °F 35.6 °F 93% 29.79 in 10.0 mi North 13.8 mph 19.6 mph N/A   Overcast
9:35 PM 39.2 °F 32.0 °F 35.6 °F 87% 29.79 in 10.0 mi North 11.5 mph 24.2 mph N/A   Overcast
9:55 PM 37.4 °F 30.3 °F 35.6 °F 93% 29.81 in 10.0 mi NNW 10.4 mph 21.9 mph N/A   Overcast
10:15 PM 37.4 °F 29.8 °F 35.6 °F 93% 29.81 in 10.0 mi North 11.5 mph 23.0 mph N/A   Overcast
10:35 PM 37.4 °F 29.3 °F 35.6 °F 93% 29.81 in 10.0 mi North 12.7 mph 19.6 mph 0.01 in   Overcast
10:55 PM 37.4 °F 29.3 °F 35.6 °F 93% 29.81 in 10.0 mi North 12.7 mph 20.7 mph 0.01 in   Overcast
11:15 PM 39.2 °F 32.5 °F 35.6 °F 87% 29.82 in 10.0 mi North 10.4 mph 18.4 mph N/A   Overcast
11:35 PM 39.2 °F 32.5 °F 35.6 °F 87% 29.82 in 10.0 mi North 10.4 mph 17.3 mph N/A   Overcast
11:55 PM 39.2 °F 34.2 °F 35.6 °F 87% 29.82 in 10.0 mi North 6.9 mph - N/A   Overcast